Location: Auttagershofen
(48.1940°N, 10.0237°E)
Time: 02:13:21
(UTC+00:00)

Lacrosse 5 rocket - Pass Details

Date: 18 January 2026
Orbit: 402 x 482 km, 57.0° (Epoch: 6 February)

Event Time Altitude Azimuth Distance (km) Brightness Sun altitude
Exits shadow 05:20:57 20° 339° (NNW) 1,192 2.7 -16.7°
Maximum altitude 05:22:22 25° 13° (NNE) 1,033 2.7 -16.4°
Drops below altitude 10° 05:25:32 10° 70° (ENE) 1,679 4.7 -15.9°
Sets 05:27:59 0° 84° (E) 2,555 6.1 -15.5°
